GFSSW_sfc_30mbdewp_126.txt.gz
Dewpoint
61 60 60 60 60 60 59 59 58 58 57 56 55 54 53 52 50 45 35 40 40 41 31 24 29 30 27 25 17 19 19 19 19 18 19 22 21 22 23 21 22 21 22 23 28
57 56 55 55 55 57 58 59 58 58 57 56 55 54 52 51 45 41 43 46 38 35 21 26 30 30 23 23 20 15 17 20 20 19 19 21 22 22 22 22 21 21 22 22 21
53 52 53 53 53 53 52 52 54 55 56 56 54 53 51 49 37 36 44 41 38 32 27 30 33 30 23 22 22 18 17 18 19 21 24 22 23 23 22 21 21 21 21 22 21
52 52 53 53 53 53 52 52 53 55 57 56 54 51 49 44 -8 39 43 42 41 32 28 29 30 26 23 22 23 20 21 21 23 24 24 23 23 22 22 23 23 22 22 22 22
51 51 51 50 50 50 51 52 52 54 55 55 51 48 44 37 26 44 44 46 40 32 29 29 28 27 26 27 26 25 25 25 25 25 24 24 24 23 22 23 24 23 23 22 23
51 50 50 50 49 49 50 50 52 53 54 53 49 45 43 17 36 44 42 40 38 32 30 29 29 30 29 27 26 26 26 26 26 27 27 25 24 22 23 24 23 22 21 21 23
51 49 48 49 49 50 50 50 52 52 51 51 48 42 41 25 42 42 41 39 40 39 37 35 32 28 28 27 29 27 26 27 27 27 24 24 21 22 24 23 21 20 20 20 24
50 48 48 49 49 50 50 52 52 51 51 49 46 42 32 42 43 42 42 41 42 42 41 41 40 31 29 29 28 27 26 25 24 23 23 23 20 23 24 22 21 20 20 21 45
48 48 48 48 50 51 52 52 53 51 50 48 43 41 25 39 32 34 41 39 42 42 42 41 35 30 29 27 27 26 25 23 22 24 24 23 22 24 25 21 21 20 21 30 43
47 47 48 48 50 51 49 50 50 48 47 45 42 34 31 22 35 39 42 42 41 41 40 38 31 27 25 26 18 22 21 22 22 23 23 23 23 24 24 22 23 22 22 41 41
46 48 48 48 49 49 47 44 37 36 42 29 31 32 32 35 36 33 42 41 36 35 33 33 34 32 33 26 25 24 23 23 23 23 23 23 24 24 23 23 23 24 26 41 39
45 47 47 47 48 48 47 41 44 43 32 40 40 38 38 38 34 31 35 34 33 32 30 26 29 32 29 26 25 24 23 22 23 24 24 23 23 25 24 29 36 38 40 38 36
45 47 46 47 47 46 44 42 47 44 35 33 39 39 38 39 32 30 29 32 30 27 28 28 27 27 26 25 24 24 22 22 22 24 25 25 24 22 32 34 35 36 36 35 35
46 46 46 47 41 44 41 43 45 44 20 11 31 36 40 39 33 38 33 30 30 27 26 25 26 25 24 23 23 21 24 24 24 26 25 24 21 23 33 32 33 33 34 34 34
47 46 46 45 43 41 43 46 46 33 -30 12 33 39 40 36 33 35 36 32 28 29 28 25 29 28 25 24 24 23 27 27 28 27 24 23 21 25 34 31 31 32 32 32 33
48 47 46 44 44 45 45 47 40 9 -34 -4 33 34 34 35 32 35 33 33 31 29 30 28 30 28 28 29 28 28 28 28 25 24 23 25 23 20 28 31 32 33 34 35 34
48 48 46 44 37 44 44 44 18 -4 -1 6 25 33 31 29 28 29 32 31 28 24 24 28 28 30 30 27 29 29 27 24 22 21 21 21 21 19 34 33 33 33 35 36 37
47 47 46 43 44 42 45 35 1 -3 -2 14 11 27 27 28 27 26 28 27 30 27 24 21 18 25 28 29 24 26 26 23 18 17 17 22 18 19 35 36 35 35 36 37 37
46 44 44 42 45 42 40 26 4 13 16 20 7 1 4 14 26 24 26 25 26 27 24 22 21 23 26 27 26 27 26 28 25 23 22 22 23 31 35 35 35 35 36 37 36
42 40 39 42 45 40 35 23 24 26 23 22 9 15 11 16 18 19 19 23 25 26 27 25 21 23 25 21 22 25 27 23 24 18 16 18 18 19 31 33 35 35 36 36 37
38 31 34 45 42 35 27 25 25 26 25 24 21 18 23 23 27 24 24 25 29 27 26 25 23 23 27 22 20 22 24 24 25 23 18 15 15 25 28 34 34 34 37 36 32
36 29 36 45 32 30 26 26 26 24 26 24 25 23 23 24 23 23 25 26 30 29 25 27 24 21 23 27 26 21 22 22 23 20 23 20 18 28 33 35 35 35 33 29 27
33 31 38 41 24 25 25 26 27 25 25 26 26 25 22 19 17 21 20 22 26 30 27 30 27 24 23 23 27 23 21 21 24 23 19 19 19 37 36 36 36 31 28 27 26
33 26 32 36 32 27 24 24 26 29 27 26 29 30 29 28 29 28 28 28 29 35 34 32 27 23 19 19 23 24 25 21 21 18 18 19 20 31 34 33 31 28 26 26 25
33 29 28 26 28 30 30 26 25 25 28 29 28 26 28 27 28 29 31 30 27 27 33 31 26 25 25 24 24 22 24 25 21 21 21 21 22 24 26 31 27 26 26 25 24
30 29 33 29 27 29 30 25 26 25 25 27 26 29 28 26 25 22 25 26 25 26 25 28 27 23 22 22 23 23 26 27 27 26 24 24 24 28 28 27 26 26 25 25 24
36 36 30 26 27 25 23 24 25 27 27 27 26 27 28 29 30 32 32 32 31 28 26 28 28 27 24 23 21 22 24 25 25 24 22 20 21 27 26 26 26 26 26 25 24

GFSSW_sfc_30mbdewp_132.txt.gz
Dewpoint
61 60 59 58 56 55 55 54 53 53 54 55 55 56 55 53 50 32 34 42 39 41 38 31 33 31 27 25 21 21 25 23 25 24 23 22 22 24 25 23 24 23 25 26 26
57 56 55 54 53 53 52 51 51 52 54 56 56 55 53 52 40 32 45 45 45 37 30 28 25 29 23 24 23 23 22 22 23 22 22 23 23 23 23 23 23 25 26 26 26
53 53 53 53 53 52 51 51 51 52 53 56 55 54 52 49 31 30 45 48 48 41 32 32 31 27 23 24 23 21 16 22 22 24 24 23 22 23 23 22 25 25 24 24 26
52 52 52 52 51 50 50 49 51 52 53 55 52 53 50 41 2 38 48 48 46 40 35 32 27 25 23 21 24 20 22 22 22 24 25 23 24 24 25 26 24 23 24 28 36
51 51 50 50 49 49 49 49 50 52 54 52 51 51 40 21 11 41 44 41 37 35 30 26 28 29 23 24 25 23 23 25 26 26 26 26 25 25 26 25 23 23 27 38 39
50 49 47 47 48 49 50 50 50 52 52 51 49 49 35 13 33 40 40 40 37 33 32 31 29 30 26 24 24 27 26 26 26 26 26 26 24 25 24 25 24 23 35 40 41
49 47 46 48 49 49 50 51 50 52 51 49 49 43 34 17 33 37 38 34 37 38 31 34 34 26 28 26 29 28 25 24 24 25 24 24 21 22 24 25 24 24 35 40 41
49 47 46 47 49 50 51 52 53 52 51 49 47 42 23 32 35 34 34 33 35 32 37 38 37 31 30 31 28 25 25 15 23 23 24 22 10 21 24 24 23 23 36 39 40
48 46 46 47 48 50 49 51 50 50 51 49 42 37 17 30 29 38 38 38 40 38 35 38 35 31 30 26 21 25 9 20 20 22 21 19 14 21 23 23 24 25 36 37 38
47 45 46 47 48 49 48 49 49 48 47 45 42 34 22 15 34 36 40 41 37 34 34 35 31 26 26 23 5 10 17 19 17 18 20 17 15 17 23 23 26 31 36 36 36
46 45 46 46 48 48 45 38 31 33 41 24 19 24 21 31 32 35 40 40 36 32 23 32 24 19 14 21 24 23 21 19 18 20 20 18 19 20 23 24 27 33 35 36 34
45 44 46 46 47 48 44 29 36 41 16 22 27 27 30 33 21 31 38 34 32 20 30 29 22 22 29 31 28 26 23 19 16 20 22 20 20 21 29 30 34 35 36 36 35
44 44 45 46 46 45 41 36 45 45 27 16 29 29 29 31 14 8 32 31 27 21 24 18 18 27 31 28 26 22 20 16 18 19 21 22 19 23 31 34 35 36 36 36 36
45 43 44 44 40 42 40 44 45 46 17 9 24 32 38 32 24 29 25 18 23 18 19 21 20 25 24 20 19 17 20 21 20 20 16 25 9 18 26 30 34 35 36 36 35
45 45 45 44 40 39 44 46 45 40 -2 12 30 37 37 30 34 35 31 20 11 17 22 14 24 24 23 21 22 19 25 24 25 24 22 20 19 14 25 25 29 34 36 36 35
46 45 47 44 43 44 44 46 44 18 -9 10 32 34 33 32 32 31 27 31 28 21 24 17 28 26 21 24 25 28 26 25 25 22 14 14 16 7 21 23 25 32 34 35 35
47 46 44 42 34 44 44 45 18 -0 -6 6 22 31 29 24 30 31 25 26 20 19 18 20 21 23 26 24 27 26 24 14 12 16 10 20 18 14 22 26 27 30 33 35 37
48 47 45 41 43 43 45 33 8 -13 -13 10 15 28 21 26 25 28 27 23 26 23 19 12 11 24 28 24 19 24 21 16 9 6 9 20 14 14 25 29 32 33 34 36 38
47 45 43 45 45 42 40 23 -9 -15 1 5 6 -4 5 22 22 24 25 22 22 26 19 18 16 23 26 28 25 25 23 22 19 17 17 13 13 28 33 33 34 34 35 36 38
41 39 38 45 46 39 34 16 8 15 20 15 -7 1 -7 -3 11 15 15 20 24 26 28 22 10 9 20 26 26 25 24 20 22 15 10 8 9 12 28 30 34 34 35 36 38
38 34 39 45 42 35 26 18 15 24 24 14 7 6 8 10 12 8 4 22 26 24 23 23 22 12 25 20 14 22 23 24 22 20 16 12 9 21 19 23 29 32 34 35 37
38 31 40 43 31 29 25 21 23 21 24 21 22 18 9 11 13 12 13 21 28 21 13 15 14 13 11 19 27 24 22 22 22 18 26 22 17 24 26 27 28 30 34 35 37
35 33 40 42 25 26 20 21 23 23 18 19 16 18 13 12 11 10 10 17 25 21 20 23 12 10 2 13 27 26 25 26 30 32 25 20 20 29 31 31 32 33 35 36 33
34 28 33 36 30 23 19 17 19 24 22 25 24 26 19 16 16 12 19 29 31 28 32 32 24 19 8 6 17 23 23 24 26 24 21 19 17 18 27 30 33 34 34 33 31
35 31 31 27 29 27 22 18 16 17 22 21 19 21 19 17 16 17 18 19 23 23 24 26 21 20 19 19 20 21 20 19 19 22 22 21 18 18 20 24 30 33 34 32 29
31 31 33 25 27 27 24 21 16 16 16 17 18 18 19 17 15 13 17 18 18 19 24 28 21 22 19 19 19 18 19 19 18 20 21 21 20 21 26 30 33 33 31 29 27
37 36 29 26 27 27 25 23 19 20 19 19 19 21 22 20 24 26 27 26 25 24 24 23 23 21 20 18 23 19 18 17 18 17 20 22 24 24 28 28 29 30 29 28 26

GFSSW_sfc_30mbdewp_135.txt.gz
Dewpoint
60 61 60 58 55 54 53 52 51 51 53 54 56 56 55 54 50 30 23 40 41 41 41 31 28 24 22 21 22 23 19 15 18 23 24 24 22 24 25 23 24 24 26 27 27
59 57 55 54 53 53 52 51 50 51 53 54 56 54 54 53 40 26 44 45 49 47 32 28 24 21 15 18 18 16 13 16 24 23 24 24 24 24 24 23 24 25 27 26 27
54 53 53 53 53 52 50 49 50 52 52 54 54 53 53 50 31 31 45 47 48 46 36 32 29 19 14 17 16 13 10 21 20 23 24 20 18 19 21 22 24 25 25 26 34
52 52 52 51 50 50 49 48 49 51 52 53 52 51 51 41 15 38 45 43 44 40 34 27 22 19 17 15 19 15 13 17 15 21 21 18 20 20 20 23 25 23 25 33 34
51 51 50 49 49 49 49 49 49 49 52 51 51 50 42 21 14 39 42 43 35 30 25 21 20 22 17 18 19 16 13 20 20 22 22 22 21 21 21 24 23 23 34 35 35
50 48 47 47 48 49 49 49 49 49 52 51 49 49 35 17 25 32 32 31 29 27 24 24 23 24 20 20 16 21 23 20 20 21 21 21 21 22 22 24 24 24 32 37 37
49 46 46 47 48 49 50 51 52 51 52 50 49 42 29 21 26 26 29 25 32 31 25 28 27 22 22 19 23 23 20 17 19 20 21 23 18 20 21 24 23 23 31 37 38
48 46 46 47 48 49 50 50 52 52 52 50 49 38 25 23 25 25 25 24 26 25 25 34 33 28 26 27 25 21 19 15 12 21 21 20 9 20 22 22 21 20 30 36 37
48 46 45 46 48 49 49 49 50 50 51 50 43 36 18 27 24 36 36 33 30 29 32 35 33 28 28 22 19 20 13 12 18 21 18 19 11 16 21 21 19 20 26 35 36
48 46 45 46 47 48 48 48 48 48 47 41 37 31 25 11 29 34 38 37 34 32 32 31 28 24 21 17 13 9 15 15 15 16 19 17 15 14 14 15 20 22 28 34 34
47 45 45 45 48 48 44 40 35 37 36 22 20 23 15 26 28 28 36 37 32 28 23 30 24 17 13 15 18 19 17 11 10 14 16 18 17 14 15 18 20 22 30 34 34
46 45 45 45 47 48 44 24 29 36 16 13 15 16 14 22 17 16 35 30 28 23 18 24 24 18 15 24 24 19 16 16 16 16 16 16 16 16 17 19 25 27 32 34 34
46 44 44 45 46 44 34 28 38 39 24 12 14 17 17 23 16 2 26 25 22 23 18 18 18 21 22 22 22 18 16 16 16 15 16 15 14 16 19 26 31 32 32 34 34
45 44 44 44 39 35 31 39 40 43 22 12 17 25 29 23 17 14 13 21 20 19 17 14 17 17 20 18 15 12 15 17 18 15 10 21 15 15 20 25 29 31 33 34 35
45 44 44 43 39 31 42 42 42 42 6 9 22 34 34 24 31 33 30 15 10 16 14 13 16 17 16 16 17 16 21 20 17 17 17 15 13 13 17 21 25 30 33 35 36
46 45 45 39 38 43 43 45 43 23 5 13 28 29 30 28 29 30 25 26 16 12 14 17 23 22 18 19 19 19 22 21 22 20 16 14 11 10 12 19 19 27 32 34 35
46 46 44 37 30 43 45 43 21 14 -2 6 17 26 26 24 28 27 25 23 18 17 16 17 15 18 20 19 22 22 19 12 9 10 13 14 14 12 16 20 20 25 29 33 35
47 47 43 37 40 42 43 32 18 4 3 10 13 20 17 20 24 26 21 20 18 17 13 11 12 15 19 18 13 20 18 14 10 8 7 12 14 13 18 23 25 26 29 33 36
47 42 41 41 43 42 39 22 -4 4 -4 -2 11 14 13 18 20 22 21 16 17 19 12 9 10 19 20 18 17 12 16 16 14 17 14 11 10 11 24 25 28 30 31 33 36
42 42 38 43 43 39 34 22 6 4 10 8 -3 -7 -8 0 3 10 10 13 17 23 21 15 13 18 16 21 20 18 13 14 21 19 10 9 7 8 26 27 30 31 32 34 37
41 37 39 43 38 35 27 18 16 8 15 11 5 2 3 2 2 6 5 18 23 20 19 17 16 12 7 11 12 9 17 16 15 12 12 11 11 14 23 24 28 30 31 33 36
41 32 42 41 29 29 27 18 15 12 19 15 15 11 4 6 7 6 4 17 26 23 15 15 15 8 6 7 15 21 22 17 18 19 18 23 25 20 29 24 24 24 28 31 35
36 35 41 38 27 26 20 21 19 18 15 14 9 8 7 5 4 7 6 14 21 21 19 19 17 8 4 4 6 8 15 16 13 16 20 17 21 25 26 27 26 25 27 31 36
35 29 35 38 30 22 18 15 15 19 18 15 14 14 16 10 10 7 8 17 28 22 27 27 13 9 3 -0 6 13 20 22 24 26 26 22 23 19 20 30 31 33 29 33 37
36 32 32 28 30 25 21 16 13 13 19 16 16 16 14 10 11 10 11 11 27 26 23 24 20 16 14 12 13 14 12 11 11 13 14 17 19 22 22 22 27 34 36 34 33
31 33 31 26 29 27 23 19 16 14 14 16 15 14 14 12 11 10 12 12 12 16 17 17 17 18 13 10 10 10 9 9 10 11 11 13 13 15 16 24 27 28 33 33 32
36 39 31 26 27 26 25 21 18 17 15 14 14 14 13 14 18 22 23 21 19 17 18 20 20 19 16 16 15 12 13 12 11 11 11 13 14 14 16 33 34 30 32 32 31

GFSSW_sfc_30mbdewp_138.txt.gz
Dewpoint
60 61 61 58 55 54 53 52 51 51 52 53 54 55 53 53 50 32 27 39 42 47 47 36 30 24 18 18 19 18 15 13 15 21 24 24 23 23 25 23 24 24 27 27 27
60 59 56 54 54 53 52 50 49 50 52 53 54 53 52 52 42 30 44 49 47 48 40 29 27 26 18 14 15 13 10 11 23 23 24 24 24 24 24 23 24 24 28 27 31
56 54 54 53 52 51 50 49 49 49 52 53 53 53 50 50 34 38 45 45 46 45 38 31 26 21 15 12 13 13 10 11 18 25 22 18 18 17 18 21 25 26 26 29 34
53 53 52 51 50 49 49 48 49 49 51 52 52 51 50 43 19 40 42 39 39 39 33 26 23 17 16 14 14 13 12 10 15 19 18 14 14 16 18 18 24 24 28 33 34
52 51 50 49 48 48 48 48 48 49 50 52 51 50 45 27 18 38 40 40 38 29 25 20 16 16 17 15 15 16 14 10 17 17 19 18 17 18 18 21 23 26 34 35 35
51 48 47 47 47 48 48 49 50 50 50 52 50 49 35 19 21 25 28 25 25 25 24 22 20 23 22 17 17 14 16 21 18 17 19 18 18 19 19 22 23 23 34 37 36
49 46 46 46 47 48 49 50 51 52 52 51 50 43 30 22 21 23 23 24 22 28 27 23 26 23 18 19 22 18 19 16 15 14 16 19 21 19 18 23 23 23 31 37 37
48 46 45 46 47 48 49 49 50 51 51 52 50 44 26 24 23 18 19 20 21 23 22 23 32 29 25 23 23 22 17 15 14 13 20 20 11 10 19 23 22 21 32 36 37
48 46 45 45 46 48 48 48 48 50 50 50 45 41 26 24 19 31 33 30 28 25 21 28 31 28 25 22 18 18 16 15 14 17 19 19 16 17 21 22 21 20 24 35 36
49 46 45 45 45 47 48 47 45 49 46 44 37 28 27 14 23 31 35 35 33 31 29 30 28 24 22 21 15 11 12 15 14 19 19 17 16 15 15 16 18 17 20 34 35
50 46 45 44 46 48 44 39 38 42 35 26 26 23 20 21 24 22 32 34 33 28 24 28 24 20 17 15 14 15 15 16 15 12 12 13 14 16 18 17 14 17 21 33 34
50 46 44 44 45 47 44 33 27 35 23 22 23 19 17 13 18 18 29 30 29 24 23 21 21 22 20 15 18 22 20 15 13 14 15 15 15 16 16 16 16 19 27 34 34
49 46 44 43 45 43 37 30 35 35 26 16 14 11 8 11 15 14 14 28 23 21 22 18 15 21 20 18 18 22 19 17 14 14 16 16 14 14 15 17 22 28 28 34 34
48 45 43 43 38 34 32 34 36 40 23 13 13 16 17 17 16 18 5 15 20 18 18 18 18 14 17 17 17 16 13 11 16 15 14 13 10 14 14 21 27 29 29 33 34
47 45 43 43 40 31 42 40 40 42 15 16 17 24 26 18 26 18 11 10 14 18 17 17 14 16 16 16 17 15 16 19 19 17 13 12 11 11 13 13 26 28 32 33 35
47 46 44 40 35 41 43 44 43 32 18 15 26 24 28 26 23 33 27 22 14 11 11 14 13 16 17 17 17 18 18 18 17 17 16 16 14 13 13 17 24 28 31 33 35
47 46 44 40 35 42 45 43 26 19 11 11 20 21 24 23 22 26 23 19 15 9 9 9 8 17 20 16 18 18 15 11 9 12 15 14 12 14 16 19 23 28 30 33 35
48 47 42 40 37 43 44 33 19 11 12 6 11 18 21 21 22 25 22 20 20 17 14 12 13 14 16 15 13 18 19 17 12 12 11 12 11 14 17 20 22 27 30 33 35
48 45 42 42 42 43 38 28 9 11 6 2 6 7 15 16 17 22 22 19 18 17 15 8 10 14 14 18 15 11 11 12 14 16 15 13 12 12 15 18 26 25 27 33 35
44 42 41 44 44 41 35 25 13 9 4 7 -0 9 11 12 17 19 22 20 18 24 21 16 12 16 18 19 17 17 16 14 16 18 15 12 11 12 27 28 28 29 28 32 36
43 37 40 45 43 35 28 23 15 12 13 12 10 5 2 3 5 5 4 18 22 22 21 18 17 16 17 23 17 12 14 15 15 16 13 12 11 28 30 28 31 35 40 40 38
41 33 44 43 30 30 26 22 17 16 17 13 15 13 11 9 9 9 11 26 25 24 19 17 16 14 13 16 12 14 16 19 21 21 27 26 24 28 31 32 33 34 36 37 41
37 36 45 40 28 26 21 19 19 14 15 11 15 13 10 9 8 11 12 22 20 22 22 24 15 10 6 4 4 5 7 9 14 18 17 16 15 19 21 29 32 36 35 36 42
35 29 36 39 34 26 23 18 17 18 16 17 15 13 10 8 7 7 7 14 24 20 26 24 18 10 10 7 7 6 6 10 14 20 22 21 22 24 28 25 31 32 33 39 43
35 32 34 28 31 28 24 20 18 13 17 17 15 13 12 11 11 8 7 6 19 23 24 21 13 10 8 6 6 7 8 10 11 14 18 18 14 16 15 17 27 32 34 41 41
31 33 32 26 29 28 24 20 15 14 12 16 13 12 13 11 10 8 8 10 11 15 24 22 18 17 14 14 12 10 7 6 5 6 7 7 8 12 14 15 23 30 31 39 41
36 39 37 30 30 26 26 21 18 15 14 12 17 15 12 13 23 22 24 24 21 21 22 24 25 21 15 15 15 18 17 13 9 8 9 11 15 17 16 26 30 33 34 39 38

GFSSW_sfc_30mbdewp_141.txt.gz
Dewpoint
60 60 61 59 56 54 53 52 50 49 51 52 53 53 53 53 49 34 29 38 43 51 47 41 37 33 28 20 19 18 15 14 16 23 23 24 23 24 25 24 25 28 27 30 36
61 60 58 55 54 53 52 50 49 49 50 52 52 52 52 52 42 34 42 48 49 47 40 37 31 27 24 20 15 16 14 13 22 23 21 23 24 25 24 24 25 27 32 36 38
59 57 55 54 53 51 50 48 48 49 49 51 52 52 51 51 37 37 42 45 44 42 38 36 32 27 20 17 14 14 13 14 21 23 20 16 15 15 20 22 27 28 33 35 38
56 54 53 52 50 49 48 48 48 48 49 50 52 51 50 47 15 40 41 40 39 39 33 29 23 19 17 16 17 13 14 16 16 20 19 18 17 17 19 24 27 33 34 36 39
54 52 51 49 48 48 47 48 48 49 49 50 52 50 45 34 27 36 39 39 41 34 28 24 19 16 18 21 20 16 16 17 16 17 19 19 18 18 19 24 29 35 36 36 37
52 50 47 46 47 47 48 49 49 51 52 51 52 50 41 20 22 36 35 27 28 25 27 25 22 25 22 20 15 18 17 18 20 21 18 18 19 19 19 22 31 36 37 36 37
50 47 46 46 46 47 48 48 49 50 52 52 52 46 36 22 23 25 23 25 23 23 26 25 29 29 28 22 24 26 22 21 19 18 17 15 17 19 21 23 24 36 37 37 38
48 46 45 45 45 46 47 47 48 49 51 51 52 46 30 29 25 20 18 17 21 21 23 21 27 31 29 27 25 22 23 18 16 17 17 19 17 17 20 24 23 34 37 37 37
49 46 45 44 45 46 47 47 47 48 50 50 45 45 33 26 22 21 26 27 23 22 22 21 31 29 29 25 22 20 17 17 18 19 21 19 17 20 23 23 23 33 37 37 37
50 46 45 45 45 46 47 45 44 46 43 45 43 29 28 20 22 30 35 35 30 26 24 29 29 27 26 24 19 17 17 18 16 18 20 18 18 17 21 22 22 22 36 36 37
51 48 46 44 43 45 45 39 36 41 39 34 33 25 24 23 22 25 28 34 34 30 27 29 25 22 23 23 22 21 17 18 18 19 17 18 18 18 18 19 19 20 35 35 36
50 49 47 45 44 46 44 36 33 35 31 32 31 32 31 27 15 19 22 32 31 29 26 24 25 26 25 23 21 19 20 21 21 17 15 15 16 17 16 16 17 18 34 35 35
49 49 46 43 44 39 33 37 36 39 31 24 21 16 22 20 17 12 19 31 29 29 26 23 22 25 23 22 19 18 19 21 20 19 17 15 14 16 17 17 18 32 34 34 34
51 49 45 43 35 37 37 40 40 41 25 23 16 16 15 11 12 12 15 22 25 24 23 22 24 22 20 19 18 16 19 18 17 17 15 17 12 14 14 17 25 31 34 33 34
50 47 44 42 38 39 43 44 42 43 13 19 18 19 17 11 18 16 13 15 13 19 20 19 17 17 15 16 18 17 19 19 19 19 17 16 12 11 13 13 26 29 34 34 34
49 46 44 40 40 36 44 46 44 33 17 20 28 22 18 19 19 29 18 18 18 11 13 16 18 16 16 19 18 17 18 17 18 17 15 15 11 11 14 15 24 32 34 35 36
48 46 44 40 38 45 46 45 26 21 18 19 25 23 26 26 23 27 27 23 11 9 8 9 10 11 16 18 19 18 16 13 11 15 15 17 17 17 18 25 29 30 33 35 36
48 47 45 42 42 45 45 38 21 17 17 17 14 20 20 24 23 22 24 21 19 15 15 7 10 9 12 19 18 18 16 15 13 12 15 17 13 14 23 24 29 32 33 36 36
49 46 43 42 42 44 41 26 16 16 14 10 11 11 17 22 22 22 25 22 22 22 19 16 13 14 15 17 17 14 18 20 18 20 19 18 17 17 30 30 31 32 34 36 38
46 43 40 43 43 42 36 19 18 16 15 14 11 7 8 8 16 19 24 23 25 27 25 24 18 18 17 18 18 16 19 15 20 13 16 17 15 15 28 30 33 37 40 42 43
43 36 40 45 43 38 26 21 19 20 18 14 13 13 13 11 11 13 15 25 24 24 23 22 19 18 23 22 21 19 19 18 19 20 16 15 13 30 27 30 33 33 37 43 44
41 31 40 46 33 32 24 23 23 19 17 18 16 15 13 12 13 12 15 24 23 23 22 23 18 15 15 15 22 22 14 16 18 21 25 22 21 26 29 32 33 33 34 37 42
35 36 45 41 27 26 23 20 22 21 20 15 16 15 16 14 10 11 16 20 20 24 26 25 18 11 12 10 9 7 13 18 16 24 20 20 19 22 25 28 33 31 35 37 43
34 30 36 39 34 28 24 20 17 19 20 19 17 17 16 17 13 11 10 22 23 21 25 23 21 17 13 12 12 9 6 7 9 12 13 16 19 22 22 23 29 31 34 37 43
34 31 34 29 31 31 29 25 22 16 18 18 18 17 16 12 12 12 13 12 21 23 24 20 15 14 15 12 10 9 9 11 11 12 12 12 11 18 17 15 21 26 39 42 42
32 31 36 30 33 31 30 27 25 22 20 18 18 17 16 15 15 14 13 11 12 20 23 25 18 21 17 17 15 13 13 12 11 10 8 6 7 13 18 27 29 33 41 42 39
33 37 37 32 32 30 28 26 24 24 21 19 18 16 15 16 22 25 26 25 24 22 25 28 28 25 19 20 21 16 16 16 17 17 16 12 13 18 18 28 34 35 38 40 38

GFSSW_sfc_30mbdewp_144.txt.gz
Dewpoint
60 60 60 60 56 55 53 52 49 49 49 50 50 52 53 53 50 34 27 37 41 49 50 40 34 31 30 24 22 19 15 15 14 22 23 23 22 25 25 26 28 28 30 36 44
60 61 60 57 54 53 52 50 48 48 49 49 50 51 52 52 44 35 36 44 48 49 37 30 30 30 24 21 16 16 14 13 16 23 20 17 23 24 24 26 29 35 38 41 44
60 59 57 55 53 51 50 49 48 48 49 49 50 52 51 51 35 34 41 42 44 45 35 33 33 27 22 19 17 15 14 14 17 23 19 17 16 18 24 25 29 34 37 40 42
59 57 55 53 51 49 48 47 47 49 50 50 51 52 51 46 17 39 41 40 42 44 31 28 24 17 17 15 18 18 17 15 17 20 17 15 18 16 19 24 31 35 38 41 41
57 55 52 50 48 47 47 47 48 49 50 52 52 51 44 28 24 35 37 39 41 36 30 27 23 18 19 22 19 17 18 18 20 20 18 19 16 18 20 31 35 37 39 40 40
54 52 49 47 46 47 47 48 48 48 49 52 52 51 38 16 22 35 36 31 31 25 24 27 24 26 23 23 18 20 25 21 21 19 20 18 18 19 20 32 36 36 38 39 39
51 48 46 45 45 46 47 47 47 48 48 51 52 47 38 12 24 29 25 26 25 23 22 25 23 28 29 23 26 23 22 23 18 18 18 19 16 18 20 33 36 36 38 39 39
49 46 45 45 45 45 45 46 47 48 48 50 50 46 20 31 33 28 21 20 19 21 21 22 21 30 29 28 24 21 22 19 16 16 17 16 12 16 21 29 36 36 38 38 38
49 46 45 45 44 44 45 45 46 47 48 49 44 44 30 34 25 27 22 14 25 21 21 22 29 29 29 25 22 21 12 18 17 20 18 16 15 19 22 24 35 36 37 37 37
50 48 47 45 44 44 45 43 43 46 41 45 43 27 24 19 22 29 32 33 31 25 24 23 28 27 27 24 5 12 17 18 17 18 20 18 18 20 23 23 33 37 37 37 37
51 50 48 47 46 44 43 37 34 35 41 29 34 21 24 25 25 26 31 34 34 29 26 29 24 17 22 24 24 23 22 19 19 21 16 18 18 18 20 22 25 36 36 37 37
51 51 48 46 44 45 42 24 34 35 31 34 34 33 32 31 29 22 24 27 32 31 28 25 25 23 24 24 23 22 20 19 22 20 19 17 16 17 18 18 20 33 36 36 37
50 50 49 47 44 37 31 30 34 39 27 27 28 22 23 30 29 28 21 27 30 30 30 25 22 25 26 26 24 22 19 19 19 20 17 16 13 15 17 18 18 27 36 36 37
50 50 49 45 36 38 36 43 41 39 15 19 24 18 16 20 16 26 18 26 30 27 28 28 28 25 24 22 21 19 20 20 18 17 14 18 11 14 16 16 17 29 35 36 37
50 50 48 42 39 40 40 45 45 42 19 22 17 21 17 12 16 15 15 16 16 25 23 22 19 23 23 22 20 18 19 19 19 18 17 16 15 14 14 13 18 33 34 35 37
50 50 45 40 40 35 37 46 44 30 19 23 24 19 15 15 17 29 15 16 18 12 17 18 19 15 15 17 19 20 19 18 18 17 13 15 14 11 10 15 21 34 33 34 36
50 48 43 41 38 42 46 41 19 20 21 22 24 23 18 17 17 22 23 16 10 8 6 7 8 10 14 13 18 18 16 13 11 13 12 15 13 12 17 29 28 33 33 34 36
49 47 45 42 42 43 41 28 17 18 19 21 20 21 24 26 25 20 28 22 22 13 12 7 7 7 11 13 14 18 16 14 10 10 11 18 16 18 33 37 32 34 35 36 37
49 46 43 43 41 43 35 26 23 22 17 20 16 15 19 22 25 23 25 25 23 20 12 16 13 16 11 14 15 18 16 18 15 22 18 18 18 25 34 35 39 39 38 38 38
46 44 42 43 43 42 33 25 21 18 19 21 13 12 11 15 20 22 24 26 24 25 20 23 19 21 20 15 18 16 20 17 21 14 15 17 18 17 27 31 34 38 40 40 41
44 39 41 44 43 36 26 26 23 22 19 20 18 15 15 12 14 17 27 30 23 24 24 22 21 19 20 22 19 18 18 20 20 20 14 13 13 28 27 31 30 35 40 43 42
40 32 40 45 34 32 27 23 22 18 20 22 20 18 15 15 13 14 24 25 23 24 26 25 21 20 17 19 13 20 21 22 20 21 24 22 22 30 30 31 35 36 39 42 43
36 35 43 42 28 27 27 25 23 21 21 20 18 17 17 18 12 14 22 22 22 24 25 24 25 14 14 18 17 20 22 21 18 23 17 18 19 23 26 31 33 34 37 41 43
34 30 36 39 36 28 25 23 20 22 19 18 18 19 18 17 19 13 16 21 25 24 26 21 22 18 14 17 17 12 15 15 14 11 10 15 16 18 22 22 22 31 29 36 44
33 31 34 29 31 31 27 25 21 19 20 20 19 15 18 14 14 15 15 24 21 22 25 19 12 14 13 13 13 17 15 12 11 15 14 13 11 10 10 14 21 27 34 41 41
32 31 33 32 33 31 29 25 24 23 20 16 14 18 19 16 16 14 14 15 13 21 23 28 16 22 16 19 19 16 16 15 15 15 14 12 12 15 16 24 33 36 40 41 42
36 35 33 33 32 31 29 27 26 26 25 23 19 20 19 19 23 24 26 24 23 22 24 27 26 24 19 22 21 17 16 17 15 17 18 16 17 17 18 31 34 36 41 41 41

GFSSW_sfc_30mbdewp_147.txt.gz
Dewpoint
59 60 60 60 58 55 54 52 50 49 49 50 50 50 52 53 50 35 22 33 40 48 49 35 31 31 28 24 22 20 15 15 15 20 23 20 22 25 27 27 28 33 34 48 51
60 59 60 60 56 54 52 50 49 48 49 49 50 51 52 52 45 34 36 41 45 48 32 26 26 29 24 21 17 15 15 14 14 22 20 17 20 19 25 28 34 40 44 46 46
59 58 59 58 54 52 50 49 48 48 50 51 52 52 51 52 33 26 41 40 43 46 33 31 31 24 21 19 17 15 15 15 14 23 20 17 16 19 26 27 33 38 42 43 44
59 59 58 56 52 50 48 47 48 49 49 51 52 52 51 46 30 35 40 40 44 42 32 27 25 17 16 15 19 19 17 15 15 22 17 15 17 16 20 24 32 39 41 43 43
59 58 56 52 49 47 47 47 48 48 48 49 51 51 42 19 21 29 38 39 37 33 29 26 24 20 18 22 20 17 20 21 19 19 18 18 16 15 20 31 37 40 41 42 42
59 56 53 48 46 46 46 46 47 47 48 48 50 51 34 18 21 32 36 32 29 24 24 26 22 28 24 24 22 21 24 24 22 19 20 18 17 19 22 35 38 39 40 40 40
56 52 48 45 45 45 44 45 45 46 46 48 50 48 36 14 20 25 28 24 25 23 21 24 21 29 28 23 26 24 22 22 21 18 18 20 18 18 25 35 37 38 39 40 40
50 47 45 44 44 44 44 44 44 46 46 47 49 46 19 24 35 36 32 22 22 22 22 21 22 30 29 28 21 20 20 16 16 18 17 17 13 17 27 35 35 37 39 39 39
48 46 45 44 44 44 44 44 44 47 48 48 43 43 25 31 26 26 29 23 17 24 20 22 28 27 28 22 17 20 -1 16 15 19 18 16 12 12 23 34 35 37 38 38 38
50 49 49 48 46 45 45 44 44 44 43 45 43 28 26 19 23 24 25 22 29 25 22 23 27 25 27 23 -4 4 15 17 16 18 19 18 16 18 22 30 34 36 37 37 37
51 50 48 47 47 45 42 36 34 33 40 28 33 21 22 29 26 27 33 34 34 26 22 27 20 11 14 24 19 20 20 20 20 20 19 18 18 18 20 25 34 36 37 37 37
51 51 49 49 48 46 40 26 34 35 32 33 34 34 34 33 29 27 26 29 31 29 28 26 24 20 22 24 24 24 22 21 21 22 20 19 17 17 18 20 25 36 36 36 37
51 51 49 49 47 38 33 27 40 40 31 27 31 30 31 32 30 28 23 24 30 30 29 26 22 27 26 25 23 23 22 21 20 20 18 16 15 16 16 18 19 36 36 37 37
50 50 50 48 39 40 38 44 44 35 20 19 23 23 22 27 23 30 26 25 29 28 30 30 30 28 27 24 25 23 23 22 21 17 16 17 14 14 15 16 17 23 36 37 37
50 49 49 45 40 38 39 36 46 38 19 23 20 20 20 19 17 22 22 21 24 28 27 25 21 27 27 25 24 22 22 21 19 18 17 17 15 15 15 14 15 19 35 37 38
49 49 49 43 41 36 41 43 42 29 24 22 23 19 14 13 16 26 16 16 17 18 20 20 20 17 17 18 22 20 19 18 19 18 14 16 15 13 14 15 22 29 34 36 38
50 50 46 41 34 41 45 40 23 24 23 21 22 22 15 14 14 27 16 13 10 9 9 9 10 13 14 12 15 18 17 14 13 14 13 15 15 14 21 33 32 27 34 36 38
50 50 45 41 42 41 40 30 18 23 20 24 21 23 19 22 17 17 25 15 15 11 11 5 3 7 8 10 10 16 17 14 10 10 10 18 13 15 37 37 36 35 34 37 36
50 46 43 43 43 41 31 24 21 23 19 24 21 18 21 23 25 23 21 25 19 14 7 8 10 14 10 9 11 15 16 18 15 20 17 17 23 28 36 36 36 36 36 35 35
46 44 43 43 42 41 32 24 25 20 20 22 19 18 12 14 22 25 22 26 24 23 15 17 14 22 19 18 15 16 20 16 20 13 13 16 18 18 32 35 37 36 36 36 35
44 39 42 44 43 37 28 27 26 25 23 19 19 17 15 13 13 14 24 28 22 23 24 23 20 19 21 19 15 18 17 20 19 19 12 12 14 21 27 35 36 37 37 37 36
41 32 43 44 33 32 28 26 26 22 21 21 21 20 18 16 14 15 24 22 24 24 26 30 26 21 19 20 19 23 22 24 18 19 23 22 19 28 29 29 31 38 39 39 39
35 34 42 41 27 28 28 27 25 22 20 20 20 20 18 17 12 15 22 23 24 25 25 30 31 22 16 17 22 23 22 21 20 22 18 22 23 24 28 29 32 34 39 42 41
32 29 34 38 36 29 27 25 25 24 22 22 20 17 17 19 20 18 18 20 23 24 26 22 27 25 18 18 20 24 23 21 17 18 18 19 21 21 21 21 21 29 35 38 42
35 30 34 29 30 32 27 26 24 20 22 21 19 16 14 16 18 20 22 22 23 22 22 23 16 15 15 15 15 19 19 19 19 19 21 20 20 23 19 14 15 23 29 35 42
32 30 32 31 33 33 31 27 24 24 20 18 18 19 17 12 14 14 17 20 20 21 23 25 23 20 18 18 18 19 20 19 17 18 20 24 25 23 19 19 27 32 36 39 40
37 36 32 32 31 31 30 28 26 25 23 21 18 18 17 17 21 20 22 20 20 19 25 27 22 22 18 23 22 20 19 18 17 17 17 21 18 20 19 21 29 33 39 40 40